Tracking 33470 objects as of 12-Mar-2026
HD Live streaming from Space Station
objects crossing your sky now

COSMOS 2143 DEB

Track COSMOS 2143 DEB now!
10-day predictions


NORAD ID: 57722
Int'l Code: 1991-033K
Perigee: 1,399.9 km
Apogee: 1,405.8 km
Inclination: 82.6 °
Period: 113.7 minutes
Semi major axis: 7773 km
RCS: Unknown
Launch date: May 16, 1991
Source: Commonwealth of Independent States (former USSR) (CIS)
Launch site: PLESETSK MISSILE AND SPACE COMPLEX (PKMTR)

Note: This is SATELLITE DEBRIS
Your satellite tracking list
Your tracking list is empty




NASA's NSSDC Master Catalog

Two Line Element Set (TLE):
1 57722U 91033K   26070.77139608 -.00000003  00000-0 -72145-4 0  9993
2 57722  82.5893   3.0326 0003802 332.2575  27.8315 12.66625663122491
Source of the keplerian elements: AFSPC